QPF
0.00 0.00 0.00 0.00 0.00 0.00 0.00 0.00 0.01 0.00 0.00 0.01 0.01 0.01 0.00 0.00 0.00 0.01 0.01 0.00 0.00 0.00 0.00 0.00 0.00 0.00 0.00 0.00 0.01 0.01 0.03 0.04 0.05 0.05 0.05 0.05 0.04 0.04 0.03 0.03 0.03 0.04 0.04 0.03
0.01 0.00 0.00 0.00 0.00 0.00 0.00 0.00 0.00 0.00 0.00 0.00 0.00 0.00 0.00 0.00 0.00 0.01 0.00 0.00 0.00 0.00 0.00 0.00 0.00 0.00 0.00 0.00 0.00 0.00 0.01 0.02 0.04 0.04 0.04 0.03 0.03 0.03 0.03 0.03 0.03 0.03 0.03 0.02
0.01 0.00 0.01 0.00 0.00 0.00 0.00 0.00 0.00 0.00 0.00 0.00 0.00 0.00 0.00 0.00 0.00 0.00 0.00 0.00 0.00 0.00 0.00 0.00 0.00 0.00 0.00 0.00 0.01 0.00 0.00 0.00 0.01 0.02 0.02 0.02 0.02 0.02 0.02 0.02 0.02 0.02 0.02 0.01
0.01 0.01 0.01 0.00 0.00 0.00 0.00 0.00 0.00 0.00 0.00 0.01 0.00 0.00 0.00 0.00 0.00 0.00 0.00 0.00 0.00 0.00 0.00 0.00 0.00 0.00 0.00 0.00 0.00 0.00 0.00 0.00 0.01 0.01 0.02 0.02 0.02 0.01 0.01 0.01 0.01 0.01 0.01 0.01
0.01 0.01 0.00 0.00 0.00 0.00 0.00 0.00 0.00 0.01 0.00 0.00 0.00 0.00 0.00 0.00 0.00 0.00 0.00 0.00 0.00 0.00 0.00 0.00 0.00 0.00 0.00 0.00 0.00 0.00 0.00 0.01 0.01 0.01 0.02 0.02 0.02 0.01 0.01 0.01 0.01 0.01 0.01 0.01
0.02 0.01 0.00 0.00 0.00 0.00 0.00 0.00 0.00 0.00 0.00 0.00 0.00 0.00 0.00 0.00 0.00 0.00 0.00 0.00 0.00 0.00 0.00 0.00 0.00 0.00 0.00 0.00 0.00 0.00 0.01 0.01 0.01 0.01 0.02 0.02 0.02 0.02 0.02 0.01 0.01 0.01 0.01 0.01
0.01 0.01 0.00 0.00 0.00 0.00 0.00 0.00 0.00 0.00 0.00 0.00 0.01 0.01 0.00 0.00 0.00 0.00 0.00 0.00 0.00 0.00 0.00 0.00 0.00 0.00 0.00 0.01 0.01 0.01 0.01 0.01 0.01 0.01 0.02 0.02 0.02 0.02 0.02 0.01 0.01 0.01 0.01 0.02
0.01 0.01 0.00 0.00 0.00 0.00 0.00 0.00 0.00 0.00 0.00 0.00 0.00 0.00 0.00 0.00 0.00 0.00 0.00 0.00 0.00 0.00 0.00 0.00 0.00 0.01 0.01 0.01 0.01 0.01 0.01 0.01 0.01 0.02 0.02 0.02 0.01 0.01 0.01 0.01 0.01 0.01 0.02 0.02
0.00 0.00 0.00 0.00 0.00 0.00 0.00 0.00 0.00 0.00 0.00 0.00 0.00 0.00 0.00 0.00 0.00 0.00 0.00 0.00 0.00 0.00 0.00 0.00 0.00 0.01 0.01 0.01 0.01 0.01 0.01 0.01 0.01 0.02 0.02 0.01 0.01 0.01 0.01 0.01 0.01 0.02 0.02 0.01
0.01 0.01 0.01 0.00 0.00 0.00 0.00 0.00 0.00 0.00 0.00 0.00 0.00 0.00 0.00 0.00 0.00 0.00 0.00 0.00 0.00 0.00 0.00 0.00 0.00 0.01 0.01 0.01 0.01 0.02 0.01 0.01 0.01 0.01 0.01 0.02 0.02 0.02 0.02 0.02 0.03 0.03 0.02 0.02
0.00 0.00 0.00 0.00 0.00 0.00 0.00 0.00 0.00 0.00 0.00 0.00 0.00 0.00 0.00 0.00 0.00 0.00 0.00 0.00 0.00 0.01 0.01 0.00 0.00 0.01 0.01 0.01 0.01 0.02 0.01 0.01 0.01 0.01 0.02 0.02 0.03 0.03 0.04 0.04 0.03 0.03 0.03 0.02
0.00 0.00 0.00 0.00 0.00 0.00 0.00 0.00 0.00 0.00 0.00 0.00 0.00 0.00 0.00 0.00 0.00 0.00 0.00 0.00 0.00 0.01 0.01 0.01 0.01 0.01 0.01 0.01 0.02 0.02 0.01 0.01 0.02 0.02 0.02 0.02 0.03 0.03 0.03 0.03 0.02 0.02 0.02 0.02
0.00 0.00 0.00 0.00 0.00 0.00 0.00 0.00 0.00 0.00 0.00 0.00 0.00 0.00 0.01 0.01 0.01 0.00 0.00 0.00 0.01 0.01 0.01 0.01 0.01 0.01 0.01 0.01 0.01 0.02 0.02 0.02 0.02 0.02 0.02 0.02 0.02 0.02 0.02 0.02 0.02 0.02 0.02 0.01
0.00 0.00 0.00 0.00 0.00 0.00 0.00 0.00 0.00 0.00 0.00 0.00 0.00 0.01 0.01 0.01 0.00 0.00 0.00 0.01 0.01 0.01 0.01 0.01 0.01 0.01 0.01 0.01 0.01 0.02 0.02 0.02 0.02 0.02 0.02 0.02 0.02 0.02 0.02 0.02 0.02 0.02 0.01 0.01
0.00 0.00 0.00 0.00 0.00 0.00 0.00 0.00 0.00 0.00 0.00 0.00 0.01 0.01 0.00 0.00 0.00 0.00 0.01 0.01 0.00 0.01 0.01 0.01 0.01 0.01 0.01 0.01 0.02 0.01 0.01 0.02 0.02 0.02 0.02 0.02 0.02 0.02 0.02 0.02 0.01 0.01 0.01 0.01
0.00 0.00 0.00 0.00 0.00 0.00 0.00 0.00 0.00 0.00 0.00 0.00 0.01 0.01 0.00 0.00 0.01 0.01 0.01 0.01 0.00 0.01 0.01 0.01 0.01 0.01 0.01 0.01 0.01 0.01 0.01 0.01 0.01 0.02 0.01 0.01 0.01 0.01 0.01 0.01 0.01 0.01 0.01 0.01
0.01 0.00 0.00 0.00 0.00 0.00 0.00 0.00 0.01 0.00 0.00 0.00 0.00 0.00 0.00 0.00 0.00 0.00 0.00 0.01 0.01 0.01 0.01 0.01 0.01 0.02 0.02 0.01 0.01 0.01 0.01 0.01 0.01 0.01 0.01 0.01 0.01 0.01 0.01 0.01 0.01 0.01 0.01 0.01
0.01 0.01 0.01 0.01 0.01 0.01 0.00 0.00 0.00 0.01 0.01 0.01 0.01 0.01 0.00 0.00 0.00 0.00 0.00 0.00 0.00 0.00 0.00 0.01 0.01 0.02 0.01 0.01 0.01 0.01 0.01 0.01 0.01 0.01 0.01 0.01 0.01 0.01 0.01 0.01 0.01 0.01 0.01 0.01
0.01 0.01 0.01 0.01 0.01 0.01 0.01 0.01 0.01 0.01 0.01 0.01 0.01 0.01 0.01 0.00 0.00 0.00 0.00 0.00 0.00 0.00 0.01 0.01 0.01 0.01 0.01 0.01 0.01 0.01 0.01 0.01 0.01 0.01 0.01 0.01 0.01 0.01 0.01 0.01 0.01 0.01 0.01 0.01
0.01 0.01 0.01 0.01 0.01 0.01 0.01 0.01 0.01 0.01 0.01 0.01 0.01 0.01 0.01 0.01 0.01 0.01 0.01 0.01 0.01 0.01 0.01 0.01 0.01 0.01 0.01 0.01 0.01 0.01 0.01 0.01 0.01 0.01 0.01 0.01 0.01 0.01 0.01 0.01 0.01 0.01 0.01 0.01
0.00 0.00 0.00 0.00 0.01 0.01 0.01 0.01 0.01 0.01 0.01 0.01 0.01 0.01 0.01 0.01 0.01 0.01 0.01 0.01 0.01 0.01 0.01 0.01 0.01 0.01 0.01 0.01 0.01 0.01 0.01 0.01 0.01 0.01 0.01 0.01 0.01 0.01 0.01 0.01 0.01 0.01 0.01 0.01
0.00 0.00 0.00 0.01 0.01 0.01 0.01 0.01 0.01 0.01 0.01 0.01 0.01 0.01 0.01 0.01 0.01 0.01 0.01 0.01 0.01 0.01 0.01 0.01 0.01 0.01 0.01 0.01 0.01 0.01 0.01 0.01 0.01 0.01 0.01 0.01 0.01 0.01 0.01 0.01 0.01 0.01 0.01 0.01
0.01 0.01 0.01 0.01 0.01 0.01 0.01 0.01 0.01 0.01 0.01 0.01 0.01 0.01 0.01 0.01 0.01 0.01 0.01 0.01 0.01 0.01 0.01 0.01 0.01 0.01 0.01 0.01 0.01 0.01 0.01 0.01 0.01 0.01 0.01 0.01 0.01 0.01 0.01 0.01 0.01 0.01 0.01 0.01
0.01 0.01 0.01 0.01 0.01 0.01 0.01 0.01 0.01 0.01 0.01 0.01 0.01 0.02 0.01 0.01 0.01 0.01 0.01 0.01 0.01 0.01 0.01 0.01 0.01 0.01 0.01 0.01 0.01 0.01 0.01 0.01 0.01 0.01 0.01 0.01 0.01 0.01 0.01 0.01 0.01 0.01 0.01 0.01
0.01 0.01 0.01 0.01 0.01 0.01 0.01 0.01 0.01 0.01 0.01 0.01 0.01 0.01 0.01 0.01 0.01 0.01 0.01 0.01 0.01 0.01 0.01 0.01 0.01 0.01 0.01 0.01 0.01 0.01 0.01 0.01 0.01 0.01 0.01 0.01 0.01 0.01 0.01 0.01 0.01 0.01 0.01 0.01
0.01 0.01 0.01 0.01 0.01 0.01 0.01 0.01 0.01 0.01 0.01 0.01 0.01 0.01 0.01 0.01 0.01 0.01 0.01 0.01 0.01 0.01 0.01 0.01 0.01 0.01 0.01 0.01 0.01 0.01 0.01 0.01 0.01 0.01 0.01 0.01 0.01 0.01 0.01 0.01 0.01 0.01 0.01 0.01
0.00 0.00 0.00 0.00 0.00 0.00 0.01 0.01 0.01 0.01 0.01 0.01 0.01 0.01 0.01 0.01 0.01 0.01 0.01 0.01 0.01 0.01 0.01 0.01 0.01 0.01 0.01 0.01 0.01 0.01 0.01 0.01 0.01 0.01 0.01 0.01 0.01 0.01 0.01 0.01 0.01 0.01 0.01 0.01
MSLP
1020.59 1020.64 1020.66 1020.64 1020.55 1020.37 1020.11 1019.77 1019.38 1018.96 1018.55 1018.18 1017.89 1017.70 1017.60 1017.58 1017.63 1017.70 1017.78 1017.83 1017.81 1017.73 1017.58 1017.36 1017.09 1016.78 1016.45 1016.10 1015.75 1015.39 1015.03 1014.67 1014.29 1013.91 1013.53 1013.16 1012.80 1012.46 1012.15 1011.86 1011.60 1011.36 1011.13 1010.91
1020.84 1020.77 1020.69 1020.57 1020.42 1020.21 1019.95 1019.65 1019.32 1018.98 1018.65 1018.36 1018.14 1017.99 1017.92 1017.91 1017.95 1018.01 1018.06 1018.08 1018.05 1017.95 1017.78 1017.55 1017.25 1016.92 1016.55 1016.16 1015.76 1015.35 1014.94 1014.52 1014.10 1013.68 1013.26 1012.84 1012.44 1012.06 1011.70 1011.37 1011.07 1010.78 1010.52 1010.28
1021.08 1020.89 1020.68 1020.46 1020.22 1019.97 1019.71 1019.45 1019.19 1018.94 1018.72 1018.54 1018.40 1018.31 1018.27 1018.28 1018.31 1018.34 1018.35 1018.33 1018.26 1018.12 1017.92 1017.65 1017.33 1016.96 1016.56 1016.13 1015.68 1015.23 1014.77 1014.32 1013.85 1013.39 1012.94 1012.49 1012.05 1011.64 1011.24 1010.87 1010.53 1010.21 1009.91 1009.63
1021.29 1020.98 1020.64 1020.31 1019.99 1019.71 1019.45 1019.23 1019.04 1018.90 1018.79 1018.71 1018.66 1018.64 1018.63 1018.64 1018.64 1018.62 1018.58 1018.49 1018.35 1018.16 1017.91 1017.60 1017.25 1016.85 1016.42 1015.97 1015.50 1015.02 1014.53 1014.04 1013.56 1013.07 1012.59 1012.12 1011.67 1011.23 1010.80 1010.40 1010.02 1009.65 1009.31 1008.99
1021.41 1021.00 1020.57 1020.15 1019.78 1019.46 1019.22 1019.04 1018.94 1018.88 1018.87 1018.88 1018.91 1018.93 1018.94 1018.92 1018.87 1018.78 1018.65 1018.48 1018.26 1018.00 1017.70 1017.35 1016.97 1016.56 1016.13 1015.67 1015.20 1014.71 1014.22 1013.72 1013.22 1012.73 1012.24 1011.77 1011.30 1010.84 1010.40 1009.97 1009.55 1009.15 1008.76 1008.39
1021.41 1020.94 1020.45 1019.99 1019.59 1019.28 1019.06 1018.94 1018.90 1018.92 1018.99 1019.07 1019.13 1019.17 1019.15 1019.09 1018.96 1018.78 1018.55 1018.28 1017.97 1017.64 1017.28 1016.91 1016.52 1016.11 1015.69 1015.25 1014.79 1014.33 1013.84 1013.36 1012.87 1012.38 1011.90 1011.42 1010.95 1010.49 1010.03 1009.58 1009.14 1008.70 1008.26 1007.84
1021.26 1020.78 1020.28 1019.83 1019.44 1019.16 1018.98 1018.91 1018.93 1019.02 1019.13 1019.24 1019.32 1019.33 1019.26 1019.12 1018.89 1018.60 1018.26 1017.88 1017.48 1017.08 1016.69 1016.30 1015.91 1015.53 1015.14 1014.74 1014.33 1013.89 1013.44 1012.98 1012.51 1012.04 1011.56 1011.09 1010.62 1010.16 1009.69 1009.23 1008.76 1008.29 1007.82 1007.35
1020.97 1020.52 1020.07 1019.66 1019.33 1019.10 1018.98 1018.96 1019.03 1019.15 1019.28 1019.39 1019.44 1019.39 1019.25 1019.01 1018.67 1018.26 1017.81 1017.33 1016.86 1016.41 1015.98 1015.59 1015.23 1014.89 1014.55 1014.20 1013.84 1013.45 1013.04 1012.60 1012.15 1011.69 1011.22 1010.75 1010.28 1009.82 1009.35 1008.89 1008.41 1007.92 1007.43 1006.92
1020.54 1020.17 1019.81 1019.49 1019.24 1019.08 1019.02 1019.05 1019.15 1019.28 1019.40 1019.48 1019.47 1019.35 1019.12 1018.77 1018.33 1017.82 1017.27 1016.71 1016.18 1015.69 1015.26 1014.88 1014.55 1014.25 1013.97 1013.68 1013.37 1013.02 1012.65 1012.23 1011.79 1011.33 1010.86 1010.39 1009.92 1009.46 1009.00 1008.53 1008.06 1007.57 1007.08 1006.57
1020.03 1019.77 1019.51 1019.29 1019.13 1019.05 1019.05 1019.12 1019.23 1019.35 1019.45 1019.47 1019.40 1019.21 1018.89 1018.45 1017.92 1017.32 1016.70 1016.08 1015.51 1015.01 1014.58 1014.22 1013.93 1013.68 1013.45 1013.21 1012.94 1012.63 1012.27 1011.87 1011.43 1010.97 1010.49 1010.01 1009.53 1009.07 1008.61 1008.16 1007.70 1007.24 1006.77 1006.29
1019.47 1019.32 1019.18 1019.06 1019.00 1018.99 1019.03 1019.12 1019.23 1019.33 1019.38 1019.35 1019.21 1018.95 1018.56 1018.05 1017.46 1016.82 1016.15 1015.51 1014.93 1014.43 1014.01 1013.68 1013.42 1013.20 1013.01 1012.80 1012.56 1012.27 1011.92 1011.52 1011.07 1010.59 1010.09 1009.60 1009.11 1008.65 1008.20 1007.77 1007.35 1006.92 1006.50 1006.07
1018.92 1018.86 1018.82 1018.80 1018.81 1018.85 1018.92 1019.01 1019.10 1019.16 1019.16 1019.08 1018.89 1018.58 1018.15 1017.61 1017.00 1016.34 1015.68 1015.04 1014.47 1013.97 1013.57 1013.26 1013.02 1012.82 1012.64 1012.45 1012.21 1011.92 1011.57 1011.16 1010.69 1010.20 1009.69 1009.18 1008.69 1008.23 1007.80 1007.40 1007.02 1006.65 1006.28 1005.91
1018.40 1018.42 1018.45 1018.50 1018.56 1018.62 1018.70 1018.77 1018.83 1018.84 1018.80 1018.67 1018.45 1018.11 1017.67 1017.14 1016.54 1015.91 1015.27 1014.66 1014.11 1013.63 1013.25 1012.94 1012.71 1012.51 1012.33 1012.13 1011.89 1011.59 1011.23 1010.80 1010.33 1009.82 1009.30 1008.79 1008.30 1007.85 1007.45 1007.08 1006.74 1006.43 1006.13 1005.83
1017.93 1018.01 1018.09 1018.17 1018.25 1018.32 1018.37 1018.41 1018.42 1018.39 1018.30 1018.14 1017.89 1017.56 1017.14 1016.64 1016.09 1015.50 1014.91 1014.34 1013.82 1013.37 1013.00 1012.69 1012.44 1012.23 1012.03 1011.81 1011.56 1011.25 1010.88 1010.45 1009.97 1009.47 1008.96 1008.46 1007.99 1007.56 1007.18 1006.85 1006.57 1006.31 1006.06 1005.82
1017.52 1017.63 1017.74 1017.84 1017.92 1017.96 1017.98 1017.96 1017.91 1017.83 1017.70 1017.51 1017.26 1016.95 1016.57 1016.12 1015.63 1015.11 1014.57 1014.05 1013.57 1013.14 1012.76 1012.45 1012.18 1011.94 1011.71 1011.48 1011.21 1010.90 1010.53 1010.12 1009.66 1009.18 1008.69 1008.22 1007.78 1007.38 1007.04 1006.74 1006.50 1006.28 1006.08 1005.88
1017.16 1017.30 1017.43 1017.52 1017.57 1017.58 1017.54 1017.47 1017.36 1017.22 1017.05 1016.84 1016.59 1016.30 1015.97 1015.58 1015.16 1014.70 1014.23 1013.76 1013.31 1012.89 1012.51 1012.17 1011.88 1011.62 1011.37 1011.12 1010.84 1010.54 1010.19 1009.81 1009.39 1008.95 1008.51 1008.08 1007.68 1007.33 1007.02 1006.76 1006.54 1006.35 1006.18 1006.00
1016.85 1017.01 1017.14 1017.23 1017.25 1017.21 1017.12 1016.98 1016.80 1016.61 1016.39 1016.16 1015.92 1015.65 1015.35 1015.02 1014.66 1014.26 1013.84 1013.42 1012.99 1012.58 1012.20 1011.85 1011.53 1011.24 1010.98 1010.72 1010.46 1010.17 1009.87 1009.53 1009.17 1008.79 1008.41 1008.04 1007.69 1007.37 1007.10 1006.86 1006.66 1006.49 1006.33 1006.16
1016.59 1016.77 1016.91 1016.98 1016.97 1016.89 1016.73 1016.53 1016.29 1016.04 1015.78 1015.53 1015.27 1015.01 1014.74 1014.45 1014.14 1013.79 1013.41 1013.01 1012.61 1012.20 1011.82 1011.45 1011.12 1010.82 1010.55 1010.30 1010.06 1009.81 1009.56 1009.28 1008.99 1008.68 1008.36 1008.05 1007.75 1007.48 1007.23 1007.02 1006.83 1006.67 1006.51 1006.34
1016.35 1016.56 1016.71 1016.77 1016.74 1016.61 1016.40 1016.14 1015.84 1015.53 1015.23 1014.94 1014.67 1014.41 1014.15 1013.89 1013.60 1013.28 1012.93 1012.55 1012.16 1011.76 1011.37 1011.00 1010.67 1010.36 1010.10 1009.87 1009.65 1009.45 1009.25 1009.04 1008.81 1008.57 1008.33 1008.07 1007.82 1007.59 1007.37 1007.17 1006.99 1006.83 1006.67 1006.50
1016.12 1016.36 1016.52 1016.58 1016.53 1016.36 1016.11 1015.80 1015.45 1015.09 1014.74 1014.42 1014.12 1013.85 1013.58 1013.32 1013.04 1012.74 1012.40 1012.04 1011.65 1011.26 1010.88 1010.51 1010.18 1009.89 1009.64 1009.43 1009.25 1009.09 1008.94 1008.79 1008.62 1008.45 1008.25 1008.05 1007.84 1007.64 1007.45 1007.27 1007.10 1006.95 1006.79 1006.63
1015.89 1016.15 1016.32 1016.37 1016.29 1016.10 1015.82 1015.46 1015.07 1014.67 1014.28 1013.93 1013.61 1013.31 1013.04 1012.77 1012.48 1012.18 1011.85 1011.50 1011.12 1010.74 1010.36 1010.01 1009.69 1009.41 1009.18 1008.99 1008.85 1008.72 1008.62 1008.51 1008.40 1008.27 1008.12 1007.96 1007.79 1007.62 1007.45 1007.29 1007.14 1007.00 1006.86 1006.71
1015.61 1015.88 1016.05 1016.09 1015.99 1015.78 1015.47 1015.09 1014.67 1014.24 1013.83 1013.45 1013.10 1012.79 1012.50 1012.22 1011.93 1011.63 1011.30 1010.96 1010.59 1010.22 1009.85 1009.51 1009.21 1008.95 1008.74 1008.57 1008.45 1008.36 1008.28 1008.20 1008.12 1008.02 1007.91 1007.78 1007.64 1007.50 1007.36 1007.23 1007.11 1007.00 1006.89 1006.77
1015.25 1015.51 1015.66 1015.68 1015.57 1015.33 1015.01 1014.61 1014.19 1013.75 1013.33 1012.94 1012.58 1012.26 1011.96 1011.67 1011.38 1011.08 1010.76 1010.42 1010.07 1009.71 1009.36 1009.04 1008.76 1008.51 1008.32 1008.17 1008.06 1007.98 1007.92 1007.86 1007.80 1007.72 1007.63 1007.53 1007.42 1007.31 1007.20 1007.11 1007.02 1006.95 1006.89 1006.81
1014.79 1015.01 1015.12 1015.11 1014.97 1014.73 1014.40 1014.01 1013.59 1013.16 1012.75 1012.37 1012.02 1011.70 1011.41 1011.12 1010.84 1010.55 1010.24 1009.91 1009.57 1009.23 1008.91 1008.60 1008.33 1008.10 1007.92 1007.78 1007.68 1007.61 1007.55 1007.50 1007.45 1007.39 1007.32 1007.24 1007.15 1007.08 1007.01 1006.95 1006.91 1006.89 1006.88 1006.86
1014.19 1014.35 1014.41 1014.36 1014.21 1013.95 1013.63 1013.25 1012.86 1012.46 1012.09 1011.73 1011.41 1011.12 1010.84 1010.57 1010.30 1010.02 1009.73 1009.42 1009.10 1008.78 1008.47 1008.19 1007.93 1007.72 1007.54 1007.41 1007.31 1007.24 1007.18 1007.13 1007.09 1007.04 1006.98 1006.93 1006.88 1006.83 1006.80 1006.80 1006.80 1006.83 1006.87 1006.90
1013.45 1013.55 1013.55 1013.46 1013.28 1013.02 1012.71 1012.37 1012.01 1011.66 1011.33 1011.03 1010.75 1010.49 1010.24 1010.01 1009.76 1009.50 1009.23 1008.94 1008.64 1008.35 1008.06 1007.79 1007.55 1007.34 1007.17 1007.04 1006.94 1006.87 1006.81 1006.77 1006.73 1006.70 1006.66 1006.63 1006.61 1006.60 1006.61 1006.65 1006.71 1006.78 1006.86 1006.94
1012.61 1012.62 1012.56 1012.43 1012.23 1011.98 1011.69 1011.39 1011.09 1010.80 1010.52 1010.27 1010.05 1009.83 1009.63 1009.42 1009.21 1008.98 1008.73 1008.46 1008.19 1007.91 1007.64 1007.39 1007.16 1006.96 1006.80 1006.67 1006.57 1006.50 1006.45 1006.41 1006.38 1006.36 1006.35 1006.35 1006.36 1006.39 1006.44 1006.51 1006.61 1006.72 1006.84 1006.96
Thickness
5438 5436 5434 5436 5432 5424 5427 5446 5452 5462 5455 5463 5458 5451 5448 5446 5444 5442 5441 5439 5437 5435 5434 5432 5431 5429 5427 5426 5425 5424 5424 5423 5423 5422 5422 5422 5421 5421 5420 5419 5419 5419 5419 5419
5428 5425 5422 5423 5430 5427 5424 5429 5434 5437 5444 5455 5448 5442 5440 5440 5437 5435 5435 5433 5431 5429 5427 5425 5423 5421 5419 5418 5416 5415 5414 5414 5413 5412 5412 5411 5411 5410 5410 5410 5410 5409 5409 5410
5438 5417 5415 5435 5438 5429 5426 5427 5430 5438 5449 5445 5438 5435 5434 5433 5432 5430 5429 5428 5425 5423 5421 5418 5416 5413 5411 5410 5408 5407 5406 5405 5404 5403 5403 5402 5401 5401 5401 5400 5400 5399 5400 5400
5422 5415 5428 5452 5432 5430 5425 5426 5425 5429 5434 5434 5431 5429 5426 5427 5427 5426 5423 5421 5419 5416 5413 5410 5408 5405 5403 5402 5400 5400 5399 5398 5396 5395 5394 5393 5393 5393 5392 5392 5391 5391 5391 5391
5413 5424 5439 5440 5427 5420 5419 5428 5427 5422 5424 5425 5419 5419 5430 5425 5421 5419 5417 5415 5412 5409 5405 5403 5400 5398 5396 5395 5394 5393 5392 5391 5390 5388 5387 5386 5386 5386 5385 5384 5384 5383 5383 5383
5402 5418 5435 5445 5423 5414 5416 5428 5428 5419 5419 5416 5410 5424 5433 5420 5414 5411 5409 5407 5404 5401 5398 5396 5393 5391 5389 5389 5388 5387 5386 5384 5383 5381 5380 5380 5379 5379 5378 5377 5377 5377 5377 5377
5399 5411 5431 5427 5409 5408 5422 5435 5422 5416 5414 5410 5409 5415 5414 5408 5405 5403 5401 5398 5396 5393 5391 5389 5387 5385 5383 5382 5381 5380 5379 5378 5377 5375 5374 5374 5373 5372 5372 5371 5371 5371 5371 5371
5393 5402 5423 5411 5404 5413 5425 5417 5412 5410 5407 5405 5404 5402 5400 5399 5397 5395 5393 5390 5388 5386 5384 5382 5380 5379 5378 5377 5376 5374 5373 5372 5371 5370 5369 5368 5367 5367 5366 5366 5366 5365 5365 5365
5401 5417 5414 5404 5407 5408 5405 5406 5406 5404 5401 5397 5395 5395 5393 5392 5390 5388 5386 5384 5381 5379 5378 5376 5374 5373 5372 5371 5370 5369 5368 5367 5366 5365 5363 5362 5361 5361 5361 5360 5360 5359 5358 5358
5385 5403 5402 5398 5398 5398 5397 5397 5398 5396 5393 5390 5389 5389 5387 5385 5384 5381 5379 5377 5375 5373 5371 5370 5369 5367 5366 5365 5364 5363 5363 5363 5361 5360 5358 5357 5356 5355 5354 5354 5354 5353 5353 5352
5382 5396 5394 5399 5397 5396 5394 5391 5389 5388 5386 5385 5383 5383 5381 5379 5378 5376 5373 5371 5368 5367 5366 5365 5363 5362 5361 5360 5359 5359 5359 5358 5356 5355 5354 5352 5350 5349 5348 5347 5347 5347 5347 5346
5403 5402 5396 5403 5399 5393 5389 5388 5387 5384 5383 5381 5379 5377 5376 5374 5372 5370 5368 5365 5363 5362 5361 5360 5359 5357 5356 5356 5355 5354 5354 5353 5352 5350 5349 5347 5346 5344 5342 5341 5341 5340 5340 5339
5395 5393 5391 5392 5390 5387 5385 5384 5382 5380 5378 5377 5375 5372 5370 5369 5367 5364 5362 5361 5360 5359 5357 5356 5355 5353 5352 5351 5350 5349 5349 5348 5347 5345 5344 5342 5341 5339 5338 5337 5335 5334 5333 5333
5383 5382 5383 5385 5385 5382 5379 5377 5375 5373 5372 5371 5369 5367 5364 5363 5361 5360 5359 5358 5355 5354 5353 5352 5351 5350 5349 5347 5346 5345 5344 5343 5341 5340 5339 5337 5335 5334 5332 5332 5331 5329 5328 5327
5378 5377 5379 5379 5376 5374 5371 5369 5367 5367 5366 5365 5363 5361 5360 5358 5357 5356 5355 5353 5351 5350 5350 5349 5348 5347 5346 5344 5343 5341 5340 5339 5338 5336 5335 5333 5331 5329 5327 5326 5325 5324 5323 5322
5375 5372 5371 5370 5370 5368 5365 5363 5363 5364 5363 5361 5359 5357 5356 5355 5353 5352 5351 5349 5348 5349 5348 5346 5346 5345 5342 5341 5339 5338 5336 5334 5333 5332 5331 5329 5327 5325 5323 5321 5320 5319 5319 5318
5368 5370 5368 5368 5367 5365 5362 5361 5360 5360 5358 5357 5355 5353 5351 5349 5348 5348 5347 5346 5345 5345 5345 5344 5342 5340 5339 5337 5335 5334 5333 5331 5329 5328 5327 5325 5323 5321 5319 5317 5316 5315 5315 5314
5368 5369 5368 5365 5364 5361 5359 5357 5356 5355 5354 5354 5351 5349 5347 5347 5347 5346 5344 5343 5342 5342 5342 5341 5339 5337 5335 5334 5332 5330 5329 5327 5325 5324 5322 5321 5319 5317 5315 5314 5313 5312 5312 5310
5361 5361 5361 5359 5358 5357 5355 5354 5353 5352 5351 5349 5347 5346 5346 5345 5344 5342 5341 5340 5340 5341 5340 5338 5336 5334 5333 5330 5328 5327 5325 5323 5322 5320 5318 5317 5315 5314 5312 5311 5310 5309 5308 5308
5357 5356 5356 5355 5353 5351 5351 5350 5349 5348 5347 5345 5344 5343 5343 5341 5340 5338 5338 5338 5339 5340 5337 5335 5333 5331 5329 5327 5325 5323 5322 5320 5318 5316 5315 5313 5312 5311 5309 5308 5307 5306 5305 5305
5353 5352 5351 5350 5349 5348 5347 5345 5344 5344 5343 5341 5341 5341 5340 5338 5336 5335 5336 5338 5337 5335 5333 5332 5330 5328 5326 5324 5322 5320 5319 5317 5315 5313 5312 5310 5309 5308 5306 5305 5304 5304 5303 5302
5348 5347 5346 5344 5343 5343 5342 5341 5340 5339 5338 5338 5337 5336 5335 5335 5334 5333 5333 5334 5333 5331 5330 5328 5327 5325 5323 5321 5319 5317 5315 5313 5312 5310 5308 5307 5306 5305 5304 5303 5302 5301 5301 5300
5343 5342 5341 5340 5339 5338 5337 5336 5336 5336 5335 5335 5334 5334 5334 5333 5333 5333 5332 5331 5329 5328 5327 5325 5324 5322 5320 5318 5316 5314 5312 5310 5308 5307 5305 5304 5303 5301 5300 5300 5299 5299 5299 5299
5338 5337 5336 5335 5333 5333 5333 5334 5331 5331 5331 5331 5331 5330 5330 5330 5330 5329 5329 5327 5326 5325 5324 5322 5321 5319 5317 5315 5313 5311 5309 5307 5305 5304 5302 5301 5299 5298 5297 5297 5297 5297 5297 5297
5333 5332 5331 5330 5331 5332 5331 5328 5327 5327 5327 5328 5328 5327 5327 5327 5327 5326 5324 5323 5322 5322 5320 5319 5317 5316 5314 5312 5309 5307 5305 5304 5302 5300 5299 5298 5297 5296 5295 5295 5295 5295 5295 5295
5330 5331 5331 5329 5328 5327 5326 5326 5326 5326 5325 5325 5325 5324 5323 5323 5322 5321 5320 5319 5318 5318 5316 5315 5313 5311 5310 5308 5306 5304 5302 5301 5299 5298 5296 5295 5295 5294 5294 5293 5293 5293 5293 5292
5326 5326 5325 5325 5324 5323 5323 5323 5323 5323 5323 5323 5322 5321 5320 5319 5318 5318 5317 5316 5315 5313 5312 5310 5309 5307 5306 5304 5302 5301 5299 5298 5297 5295 5294 5293 5293 5292 5292 5291 5291 5291 5290 5290